TimeEDT,TemperatureF,Dew PointF,Humidity,Sea Level PressureIn,VisibilityMPH,Wind Direction,Wind SpeedMPH,Gust SpeedMPH,PrecipitationIn,Events,Conditions,WindDirDegrees,DateUTC
12:56 AM,60.1,57.9,93,30.19,9.0,Calm,Calm,-,N/A,,Clear,0,2012-10-05 04:56:00
1:56 AM,59.0,57.9,96,30.18,9.0,Calm,Calm,-,N/A,,Clear,0,2012-10-05 05:56:00
2:56 AM,57.9,55.9,93,30.17,8.0,Calm,Calm,-,N/A,,Clear,0,2012-10-05 06:56:00
3:56 AM,57.0,55.0,93,30.16,10.0,Calm,Calm,-,N/A,,Clear,0,2012-10-05 07:56:00
4:56 AM,57.0,55.0,93,30.16,10.0,Calm,Calm,-,N/A,,Clear,0,2012-10-05 08:56:00
5:56 AM,57.0,55.0,93,30.17,8.0,Calm,Calm,-,0.01,,Clear,0,2012-10-05 09:56:00
6:56 AM,55.9,54.0,93,30.18,7.0,Calm,Calm,-,N/A,,Clear,0,2012-10-05 10:56:00
7:38 AM,55.4,53.6,94,30.20,1.8,Calm,Calm,-,N/A,,Clear,0,2012-10-05 11:38:00
7:51 AM,55.4,53.6,94,30.21,3.0,Calm,Calm,-,N/A,,Clear,0,2012-10-05 11:51:00
7:56 AM,54.0,53.1,97,30.19,7.0,Calm,Calm,-,N/A,,Clear,0,2012-10-05 11:56:00
8:56 AM,62.1,57.9,86,30.19,10.0,Calm,Calm,-,N/A,,Clear,0,2012-10-05 12:56:00
9:56 AM,66.9,57.9,73,30.19,10.0,Variable,3.5,-,N/A,,Clear,0,2012-10-05 13:56:00
10:56 AM,71.1,57.9,63,30.19,10.0,ESE,3.5,-,N/A,,Clear,120,2012-10-05 14:56:00
11:56 AM,75.0,57.9,55,30.16,10.0,Calm,Calm,-,N/A,,Clear,0,2012-10-05 15:56:00
12:56 PM,77.0,57.9,52,30.14,10.0,Calm,Calm,-,N/A,,Clear,0,2012-10-05 16:56:00
1:56 PM,80.1,57.0,45,30.11,10.0,SSW,8.1,-,N/A,,Clear,200,2012-10-05 17:56:00
2:56 PM,79.0,55.9,45,30.09,10.0,Calm,Calm,-,N/A,,Clear,0,2012-10-05 18:56:00
3:56 PM,80.1,57.0,45,30.06,10.0,Calm,Calm,-,N/A,,Clear,0,2012-10-05 19:56:00
4:56 PM,80.1,55.9,43,30.04,10.0,WSW,5.8,-,N/A,,Clear,240,2012-10-05 20:56:00
5:56 PM,79.0,55.0,44,30.03,10.0,WSW,5.8,-,N/A,,Clear,240,2012-10-05 21:56:00
6:56 PM,75.0,59.0,57,30.03,10.0,WSW,3.5,-,N/A,,Clear,250,2012-10-05 22:56:00
7:56 PM,69.1,60.1,73,30.03,10.0,Calm,Calm,-,N/A,,Clear,0,2012-10-05 23:56:00
8:56 PM,64.0,59.0,84,30.04,10.0,Calm,Calm,-,N/A,,Clear,0,2012-10-06 00:56:00
9:56 PM,63.0,60.1,90,30.04,10.0,Calm,Calm,-,N/A,,Clear,0,2012-10-06 01:56:00
10:56 PM,63.0,59.0,87,30.03,10.0,Calm,Calm,-,N/A,,Clear,0,2012-10-06 02:56:00
11:56 PM,63.0,57.9,84,30.04,10.0,Calm,Calm,-,N/A,,Clear,0,2012-10-06 03:56:00